MST,Max TemperatureF,Mean TemperatureF,Min TemperatureF,Max Dew PointF,MeanDew PointF,Min DewpointF,Max Humidity, Mean Humidity, Min Humidity, Max Sea Level PressureIn, Mean Sea Level PressureIn, Min Sea Level PressureIn, Max VisibilityMiles, Mean VisibilityMiles, Min VisibilityMiles, Max Wind SpeedMPH, Mean Wind SpeedMPH, Max Gust SpeedMPH,PrecipitationIn, CloudCover, Events, WindDirDegrees
2013-8-1,93,86,78,59,53,49,48,35,21,30.09,29.89,29.77,10,10,2,20,6,25,0.01,4,Rain-Thunderstorm,156
2013-8-2,95,84,72,63,57,52,61,45,23,30.06,29.88,29.77,10,9,1,26,7,39,0.35,1,Rain-Thunderstorm,154
2013-8-3,93,80,68,58,53,46,68,39,13,29.99,29.91,29.83,10,10,10,15,6,25,0.00,0,,225
2013-8-4,96,84,72,54,48,38,46,31,9,29.95,29.90,29.84,10,10,10,20,4,28,0.00,1,Rain,230
2013-8-5,96,84,71,54,44,30,53,27,7,29.96,29.86,29.75,10,10,10,9,3,,0.00,0,,238
2013-8-6,88,80,73,52,42,32,46,24,13,29.91,29.85,29.78,10,10,10,14,5,22,0.00,3,Rain,214
2013-8-7,79,70,62,63,59,51,87,70,44,30.04,29.96,29.89,10,9,4,9,6,,0.28,5,Rain,236
2013-8-8,93,78,64,60,49,34,84,42,7,29.93,29.85,29.75,10,10,10,7,3,,0.00,0,,44
2013-8-9,93,80,68,42,33,23,35,18,4,29.88,29.83,29.78,10,10,10,8,3,,0.00,0,,220
2013-8-10,87,76,66,58,48,34,65,37,15,30.21,29.99,29.84,10,10,3,18,5,25,0.12,3,Rain-Thunderstorm,91
2013-8-11,91,80,70,51,49,42,51,36,20,30.09,29.98,29.88,10,10,10,23,5,30,0.00,1,Rain-Thunderstorm,111
2013-8-12,91,78,66,53,46,39,59,32,13,30.06,29.92,29.83,10,10,9,10,4,,0.00,0,,65
2013-8-13,96,82,69,48,39,30,45,22,4,29.98,29.89,29.83,10,10,10,9,3,,0.00,0,,2
2013-8-14,98,84,70,40,33,24,24,15,4,29.94,29.86,29.79,10,10,9,12,4,,0.00,0,,105
2013-8-15,97,84,70,51,36,22,39,19,8,29.96,29.90,29.86,10,10,10,16,4,26,0.00,0,,201
2013-8-16,99,86,73,51,47,43,42,26,8,29.97,29.89,29.82,10,10,10,8,3,,0.00,0,,203
2013-8-17,90,82,72,57,53,47,51,39,20,30.15,30.01,29.87,10,9,2,28,6,46,0.20,2,Rain-Thunderstorm,232
2013-8-18,91,80,69,57,51,43,68,37,10,30.03,29.93,29.83,10,10,10,6,3,,0.00,0,,225
2013-8-19,98,84,71,52,48,43,51,29,10,29.97,29.87,29.79,10,10,10,9,4,20,0.00,0,,217
2013-8-20,98,86,75,54,49,45,45,28,10,30.06,29.85,29.73,10,10,5,13,5,33,0.00,2,Rain-Thunderstorm,208
2013-8-21,93,84,75,54,51,47,45,34,18,29.98,29.89,29.81,10,10,9,25,5,39,0.02,3,Rain,206
2013-8-22,91,82,73,57,51,46,55,35,13,30.01,29.91,29.81,10,10,10,6,3,,0.00,1,,288
2013-8-23,88,80,72,56,52,47,57,36,22,29.89,29.82,29.76,10,10,10,14,6,22,0.00,1,,303
2013-8-24,89,79,69,56,52,49,57,42,19,29.95,29.89,29.81,10,10,10,20,4,26,0.00,1,,180
2013-8-25,72,68,64,64,61,55,94,82,49,30.24,30.09,29.94,10,9,2,5,1,,0.39,7,Rain,326
2013-8-26,78,71,64,66,63,59,90,80,62,30.23,30.10,29.99,10,9,2,7,1,,0.12,7,Rain-Thunderstorm,19
2013-8-27,81,72,64,66,60,57,94,73,38,30.22,30.04,29.93,10,9,1,10,4,24,0.51,4,Rain-Thunderstorm,261
2013-8-28,90,77,64,60,58,53,81,54,22,30.01,29.94,29.87,10,10,10,6,1,,0.00,0,,11
2013-8-29,93,81,69,60,56,49,71,42,16,30.01,29.95,29.89,10,10,10,10,3,,0.00,0,,175
2013-8-30,91,81,71,66,61,56,83,54,23,30.15,29.98,29.86,10,10,2,20,5,31,0.16,3,Rain-Thunderstorm,222
2013-8-31,82,76,70,67,63,60,87,65,40,29.99,29.91,29.85,10,10,10,8,2,,0.08,3,Rain,222